Tracking 21076 objects as of 8-Aug-2020
HD Live streaming from Space Station
objects crossing your sky now

IRIDIUM 163

Track IRIDIUM 163 now!
10-day predictions
IRIDIUM 163 is classified as:


NORAD ID: 43575
Int'l Code: 2018-061G
Perigee: 783.0 km
Apogee: 786.7 km
Inclination: 86.4 °
Period: 100.4 minutes
Semi major axis: 7155 km
RCS: Unknown
Launch date: July 25, 2018
Source: United States (US)
Launch site: AIR FORCE WESTERN TEST RANGE (AFWTR)
aabbcc
Your satellite tracking list
Your tracking list is empty




NASA's NSSDC Master Catalog

Two Line Element Set (TLE):
1 43575U 18061G   20220.55165586 +.00000049 +00000-0 +10504-4 0  9994
2 43575 086.3955 230.8466 0002588 077.2385 282.9100 14.34218661106708
Source of the keplerian elements: AFSPC